STARLINK-31926 (59879 NORAD) Tracking and Keplerian Element Data

This shows tracking and keplerian element data for the satellite.

Feedback or suggestion? Click here.




ElementValue
Catalog59879
NameSTARLINK-31926
Epoch Orbit359
Epoch Day160.16667824
Epoch Year2024
RAAN327.8229
Inclination43.0049
Eccentricity0.0002724
Argument of Perigee301.6884
Mean Anonmoly249.7163
Mean Motion15.80964103
Decay Rate0.00258865
L11 59879U 24098X 24160.16667824 .00258865 00000+0 12552-2 0 9994
L22 59879 43.0049 327.8229 0002724 301.6884 249.7163 15.80964103 3594



Live tracking and technical data element details for STARLINK-31926 (NORAD 59879). STARLINK-31926 can be tracked NOW for your location showing map with azimuth and elevation plus other details from your city location.







IsCatalogInMostPopularTable: catalog: 59879, numindb: 9
Update: records affected: 1



GetName: 59879 STARLINK-31926

Hit Count: updated at: Wed, 24 Jul 2024 23:56:12 GMT